Regional Weather Roundup
Issued by NWS

Home | Current Version | Previous Version | Text Only | Print | Product List | Glossary Off
Versions: 1 2 3 4 5 6 7 8 9 10 11 12 13 14 15 16 17 18 19 20 21 22 23 24 25 26 27 28 29 30 31 32 33 34 35 36 37 38 39 40 41 42 43 44 45 46 47 48 49 50

000
ASUS43 KDMX 032207
RWRIA

WEATHER ROUNDUP FOR IOWA
NATIONAL WEATHER SERVICE DES MOINES IA
500 PM CDT MON AUG 03 2015

NOTE: "FAIR" INDICATES FEW OR NO CLOUDS BELOW 12,000 FEET WITH NO
SIGNIFICANT WEATHER AND/OR OBSTRUCTIONS TO VISIBILITY.

* - THESE STATIONS ARE NOT NWS STATIONS...THUS NOT UNDER NWS
QUALITY CONTROL.  THEY ALSO DO NOT REPORT WEATHER SUCH
AS PRECIPITATION OR FOG.

IAZ001>003-012>014-020>022-031>034-043>046-032300-
   NORTHWEST IOWA

CITY           SKY/WX    TMP DP  RH WIND       PRES   REMARKS
CARROLL *      SUNNY     77  57  50 VRB5      29.97S
CHEROKEE *     SUNNY     79  59  50 N8        29.97S HX  80
DENISON *      MOSUNNY   79  61  53 NW3       29.96S HX  80
LE MARS *      SUNNY     79  61  53 N6        29.98S HX  80
ORANGE CITY *  SUNNY     77  57  50 NW3       29.97F
SHELDON *      SUNNY     79  57  47 NW8       29.96F HX  80
SIOUX CITY     SUNNY     81  58  45 W3        29.96F HX  81
SPENCER        MOSUNNY   82  55  39 W13       29.97S HX  81
STORM LAKE *   SUNNY     77  59  53 NW6       29.98F
$$

IAZ055>058-069>071-079>083-090>094-032300-
   SOUTHWEST IOWA

CITY           SKY/WX    TMP DP  RH WIND       PRES   REMARKS
ATLANTIC *     SUNNY     79  63  57 NW5       29.96F HX  80
AUDUBON *      SUNNY     81  63  54 NW3       29.98F HX  82
CLARINDA *     SUNNY     81  68  65 N3        29.97S HX  83
COUNCIL BLFS * SUNNY     81  64  57 CALM      29.97S HX  82
CRESTON *      CLOUDY    77  61  57 NE7       29.97F
HARLAN  *      SUNNY     79  64  61 N5        30.00S HX  81
LAMONI         LGT RAIN  82  64  54 VRB3      29.95S HX  83
RED OAK *      MOSUNNY   81  64  57 NE7       29.96S HX  82
SHENANDOAH *   SUNNY     81  68  65 NE6       29.96S HX  83
$$

IAZ047>049-059>061-072>074-084-032300-
   CENTRAL IOWA

CITY           SKY/WX    TMP DP  RH WIND       PRES   REMARKS
AMES           SUNNY     79  54  41 NW8       29.95F
ANKENY *       SUNNY     79  57  47 VRB6      29.94F HX  80
CHARITON *     PTSUNNY   79  61  53 CALM      29.94F HX  80
DES MOINES     MOSUNNY   84  57  39 NW8       29.93F HX  83
GRINNELL*      SUNNY     77  57  50 NW5       29.95F
KNOXVILLE *    SUNNY     79  57  47 VRB6      29.93F HX  80
MARSHALLTOWN   SUNNY     78  56  46 W6        29.94F
PELLA *        SUNNY     81  63  54 NW6       29.95S HX  82
PERRY *          N/A     79  59  50 NW3       29.96S HX  80
$$

IAZ004>006-015-016-023>025-035-036-032300-
   NORTH CENTRAL IOWA

CITY           SKY/WX    TMP DP  RH WIND       PRES   REMARKS
ALGONA *       MOSUNNY   79  54  41 NW7       29.96S
CLARION *      SUNNY     79  57  47 W12       29.95F HX  80
ESTHERVILLE    MOSUNNY   79  56  45 NW6       29.95F HX  80
FORT DODGE *   SUNNY     79  55  44 W8        29.96F
MASON CITY     SUNNY     80  55  42 W13       29.95S HX  80
FOREST CITY *  SUNNY     75  52  43 NW12G21   29.95S
IOWA FALLS *     N/A     79  54  41 NW5       29.96S
$$

IAZ007>011-017>019-026>030-037>042-050>054-066-032300-
   NORTHEAST IOWA

CITY           SKY/WX    TMP DP  RH WIND       PRES   REMARKS
CEDAR RAPIDS   SUNNY     78  58  49 NW12      29.93S
CHARLES CITY * SUNNY     77  55  47 W10G16    29.94S
CLINTON *      SUNNY     79  54  41 NW13      29.93S
DECORAH *      SUNNY     75  54  46 NW12G18   29.91S
DUBUQUE        SUNNY     78  52  40 NW14G23   29.91S
MONTICELLO *   SUNNY     79  54  41 NW9G18    29.91S
OELWEIN *      SUNNY     77  55  47 NW9G16    29.93F
WATERLOO       SUNNY     79  55  43 NW12      29.92S
$$

IAZ064-065-067-068-078-032300-
   EAST CENTRAL IOWA

CITY           SKY/WX    TMP DP  RH WIND       PRES   REMARKS
DAVENPORT      SUNNY     79  54  41 W9        29.92S
IOWA CITY      SUNNY     80  52  37 NW8       29.93F HX  80
MT. PLEASANT * SUNNY     82  50  32 NW5       29.92F HX  81
MUSCATINE *    SUNNY     82  54  36 NW10      29.91F HX  81
QUAD CITIES    SUNNY     82  54  37 NW12      29.90F HX  81
$$

IAZ062-063-075>077-085>089-095>099-032300-
   SOUTHEAST IOWA

CITY           SKY/WX    TMP DP  RH WIND       PRES   REMARKS
BURLINGTON     SUNNY     81  60  48 NW3       29.91F HX  82
FAIRFIELD *    SUNNY     79  57  47 VRB6      29.92F HX  80
FORT MADISON * SUNNY     81  63  54 NW7       29.92F HX  82
KEOKUK *       SUNNY     82  61  47 CALM      29.91S HX  83
OSKALOOSA *      N/A     79  59  50 NW5       29.94F HX  80
CENTERVILLE *  SUNNY     77  63  61 N3        29.95F
OTTUMWA        SUNNY     80  60  50 VRB5      29.92F HX  81
WASHINGTON *   SUNNY     79  61  53 W9        29.93F HX  80
$$

ABBREVIATIONS USED IN REMARKS
   TC - TEMPERATURES IN CELSIUS
  WCI - WIND CHILL INDEX
   HX - HEAT INDEX
  VSB - VISIBILITY
$$



USA.gov is the U.S. government's official web portal to all federal, state and local government web resources and services.